TimeCDT,TemperatureF,Dew PointF,Humidity,Sea Level PressureIn,VisibilityMPH,Wind Direction,Wind SpeedMPH,Gust SpeedMPH,PrecipitationIn,Events,Conditions,WindDirDegrees,DateUTC
12:15 AM,46.6,42.8,87,29.95,10.0,Calm,Calm,-,N/A,,Clear,0,2012-10-16 05:15:00
12:35 AM,46.9,43.0,86,29.95,10.0,SSE,3.5,-,N/A,,Clear,150,2012-10-16 05:35:00
12:55 AM,46.4,42.8,87,29.94,10.0,Calm,Calm,-,N/A,,Clear,0,2012-10-16 05:55:00
1:15 AM,46.6,42.1,84,29.94,10.0,Calm,Calm,-,N/A,,Clear,0,2012-10-16 06:15:00
1:35 AM,46.0,41.9,85,29.94,10.0,East,4.6,-,N/A,,Clear,100,2012-10-16 06:35:00
1:55 AM,45.5,42.1,88,29.94,10.0,SE,3.5,-,N/A,,Clear,130,2012-10-16 06:55:00
2:15 AM,46.0,42.1,86,29.93,10.0,Calm,Calm,-,N/A,,Clear,0,2012-10-16 07:15:00
2:35 AM,45.7,42.1,87,29.93,10.0,Calm,Calm,-,N/A,,Clear,0,2012-10-16 07:35:00
2:55 AM,46.9,42.4,84,29.91,10.0,SE,5.8,-,N/A,,Clear,140,2012-10-16 07:55:00
3:15 AM,46.9,42.8,86,29.90,10.0,SSE,5.8,-,N/A,,Clear,150,2012-10-16 08:15:00
3:35 AM,47.3,43.2,86,29.90,10.0,South,6.9,-,N/A,,Clear,170,2012-10-16 08:35:00
3:55 AM,47.3,43.2,86,29.89,10.0,SSE,6.9,-,N/A,,Clear,150,2012-10-16 08:55:00
4:15 AM,46.9,42.8,86,29.88,10.0,SSE,5.8,-,N/A,,Clear,160,2012-10-16 09:15:00
4:35 AM,45.9,42.6,88,29.87,10.0,SSE,6.9,-,N/A,,Clear,150,2012-10-16 09:35:00
4:55 AM,47.7,43.7,86,29.85,10.0,SE,9.2,-,N/A,,Clear,140,2012-10-16 09:55:00
5:15 AM,49.1,43.7,82,29.85,10.0,SSE,6.9,-,N/A,,Clear,150,2012-10-16 10:15:00
5:35 AM,48.7,43.7,83,29.84,10.0,SSE,9.2,-,N/A,,Clear,150,2012-10-16 10:35:00
5:55 AM,48.4,43.7,84,29.84,10.0,SE,9.2,-,N/A,,Clear,140,2012-10-16 10:55:00
6:15 AM,48.0,43.7,85,29.83,10.0,SSE,9.2,-,N/A,,Clear,150,2012-10-16 11:15:00
6:35 AM,47.8,43.7,86,29.83,10.0,SSE,5.8,-,N/A,,Clear,150,2012-10-16 11:35:00
6:55 AM,47.8,43.7,86,29.82,10.0,SE,8.1,-,N/A,,Clear,140,2012-10-16 11:55:00
7:15 AM,47.8,43.7,86,29.82,10.0,SSE,8.1,-,N/A,,Clear,150,2012-10-16 12:15:00
7:35 AM,48.2,43.9,85,29.81,10.0,SE,8.1,-,N/A,,Clear,140,2012-10-16 12:35:00
7:55 AM,50.0,44.6,82,29.81,10.0,SSE,10.4,-,N/A,,Clear,150,2012-10-16 12:55:00
8:15 AM,51.8,46.4,82,29.81,10.0,SSE,11.5,-,N/A,,Clear,160,2012-10-16 13:15:00
8:35 AM,53.2,46.6,78,29.80,10.0,SSE,12.7,-,N/A,,Clear,150,2012-10-16 13:35:00
8:55 AM,55.0,47.5,76,29.79,10.0,SSE,16.1,19.6,N/A,,Clear,150,2012-10-16 13:55:00
9:15 AM,57.2,48.6,73,29.79,10.0,SSE,15.0,-,N/A,,Clear,160,2012-10-16 14:15:00
9:35 AM,58.1,48.9,71,29.78,10.0,SSE,16.1,21.9,N/A,,Clear,160,2012-10-16 14:35:00
9:55 AM,59.2,49.8,71,29.77,10.0,SSE,16.1,19.6,N/A,,Clear,160,2012-10-16 14:55:00
10:15 AM,62.1,50.5,66,29.76,10.0,SSE,16.1,-,N/A,,Clear,160,2012-10-16 15:15:00
10:35 AM,63.9,50.9,63,29.75,10.0,SSE,17.3,-,N/A,,Clear,160,2012-10-16 15:35:00
10:55 AM,65.3,51.1,60,29.74,10.0,SSE,16.1,-,N/A,,Clear,160,2012-10-16 15:55:00
11:15 AM,66.7,51.1,57,29.72,10.0,South,16.1,25.3,N/A,,Clear,170,2012-10-16 16:15:00
11:35 AM,67.6,51.1,55,29.72,10.0,South,18.4,21.9,N/A,,Clear,170,2012-10-16 16:35:00
11:55 AM,69.8,51.8,53,29.71,10.0,South,16.1,-,N/A,,Clear,170,2012-10-16 16:55:00
12:15 PM,70.9,51.3,50,29.70,7.0,South,16.1,-,N/A,,Clear,180,2012-10-16 17:15:00
12:35 PM,72.0,51.3,48,29.68,10.0,South,19.6,-,N/A,,Clear,180,2012-10-16 17:35:00
12:55 PM,71.6,51.8,50,29.67,10.0,South,15.0,-,N/A,,Clear,180,2012-10-16 17:55:00
1:15 PM,72.7,52.0,48,29.65,10.0,South,13.8,-,N/A,,Clear,180,2012-10-16 18:15:00
1:35 PM,74.5,52.5,46,29.64,10.0,South,15.0,-,N/A,,Clear,180,2012-10-16 18:35:00
1:55 PM,76.1,53.1,45,29.63,10.0,South,16.1,21.9,N/A,,Clear,190,2012-10-16 18:55:00
2:15 PM,77.0,53.4,44,29.61,10.0,South,17.3,21.9,N/A,,Clear,180,2012-10-16 19:15:00
2:35 PM,77.7,53.1,42,29.60,10.0,South,17.3,21.9,N/A,,Clear,180,2012-10-16 19:35:00
2:55 PM,79.2,52.0,39,29.59,10.0,South,16.1,20.7,N/A,,Clear,190,2012-10-16 19:55:00
3:15 PM,79.7,48.9,34,29.58,10.0,SSW,19.6,34.5,N/A,,Scattered Clouds,210,2012-10-16 20:15:00
3:35 PM,79.7,48.0,33,29.57,10.0,SW,23.0,28.8,N/A,,Mostly Cloudy,220,2012-10-16 20:35:00
3:55 PM,80.6,48.2,32,29.56,10.0,SSW,20.7,29.9,N/A,,Mostly Cloudy,210,2012-10-16 20:55:00
4:15 PM,80.8,47.5,31,29.55,10.0,SSW,21.9,31.1,N/A,,Scattered Clouds,210,2012-10-16 21:15:00
4:35 PM,80.6,46.4,30,29.55,10.0,SSW,25.3,29.9,N/A,,Scattered Clouds,200,2012-10-16 21:35:00
4:55 PM,79.9,46.9,31,29.55,10.0,SSW,17.3,27.6,N/A,,Scattered Clouds,210,2012-10-16 21:55:00
5:15 PM,78.8,47.8,34,29.55,10.0,South,16.1,21.9,N/A,,Clear,190,2012-10-16 22:15:00
5:35 PM,77.4,48.2,36,29.54,10.0,South,16.1,23.0,N/A,,Clear,190,2012-10-16 22:35:00
5:55 PM,75.9,49.1,39,29.54,10.0,South,13.8,-,N/A,,Clear,190,2012-10-16 22:55:00
6:15 PM,74.1,49.3,41,29.54,10.0,South,11.5,-,N/A,,Clear,190,2012-10-16 23:15:00
6:35 PM,72.3,50.0,45,29.54,10.0,South,10.4,-,N/A,,Scattered Clouds,190,2012-10-16 23:35:00
6:55 PM,72.0,50.0,46,29.54,10.0,South,10.4,-,N/A,,Scattered Clouds,180,2012-10-16 23:55:00
7:15 PM,70.3,50.0,48,29.54,10.0,South,10.4,-,N/A,,Scattered Clouds,190,2012-10-17 00:15:00
7:35 PM,70.2,49.5,48,29.55,10.0,South,11.5,-,N/A,,Clear,190,2012-10-17 00:35:00
7:55 PM,71.2,48.6,45,29.55,10.0,SSW,10.4,-,N/A,,Clear,200,2012-10-17 00:55:00
8:15 PM,70.7,48.2,45,29.56,10.0,South,10.4,-,N/A,,Clear,190,2012-10-17 01:15:00
8:35 PM,69.4,48.0,46,29.55,10.0,South,10.4,-,N/A,,Clear,190,2012-10-17 01:35:00
8:55 PM,67.6,48.2,50,29.56,10.0,SSW,10.4,16.1,N/A,,Clear,200,2012-10-17 01:55:00
9:15 PM,68.0,47.5,48,29.56,10.0,SSW,10.4,-,N/A,,Clear,200,2012-10-17 02:15:00
9:35 PM,67.1,47.8,50,29.56,10.0,SSW,10.4,-,N/A,,Clear,200,2012-10-17 02:35:00
9:55 PM,66.2,48.2,52,29.57,10.0,South,9.2,-,N/A,,Scattered Clouds,190,2012-10-17 02:55:00
10:15 PM,66.7,48.9,53,29.58,10.0,South,10.4,-,N/A,,Mostly Cloudy,190,2012-10-17 03:15:00
10:35 PM,67.8,47.8,49,29.57,10.0,SSW,12.7,-,N/A,,Overcast,200,2012-10-17 03:35:00
10:55 PM,66.6,47.7,51,29.57,10.0,South,12.7,-,N/A,,Mostly Cloudy,190,2012-10-17 03:55:00
11:15 PM,66.2,47.8,52,29.57,10.0,South,11.5,-,N/A,,Mostly Cloudy,190,2012-10-17 04:15:00
11:35 PM,66.0,47.3,51,29.58,10.0,SSW,10.4,-,N/A,,Scattered Clouds,200,2012-10-17 04:35:00
11:55 PM,65.5,47.1,51,29.58,10.0,SSW,12.7,-,N/A,,Scattered Clouds,200,2012-10-17 04:55:00